Pensacola NAS, FL

4:46 PM CDT on April 24, 2017 (GMT -0500)
Pensacola Naval Air Station

Weather History for KNPA - April, 2014

Change the Weather History Date:

Wednesday, April 16, 2014

  Actual Average Record
Temperature  
Mean Temperature 52 °F -  
Max Temperature 63 °F 74 °F 82 °F (2001)
Min Temperature 43 °F 56 °F 41 °F (2008)
Degree Days  
Heating Degree Days 12    
Growing Degree Days 2 (Base 50)    
Moisture  
Dew Point 39 °F    
Average Humidity 64    
Maximum Humidity 100    
Minimum Humidity 46    
Precipitation  
Precipitation 0.00 in - - ()
Sea Level Pressure  
Sea Level Pressure 30.18 in    
Wind  
Wind Speed 8 mph (ENE)    
Max Wind Speed 15 mph    
Max Gust Speed 20 mph    
Visibility 10 miles    
Events      
Averages and records for this station are not official NWS values.
T = Trace of Precipitation, MM = Missing Value Source: NWS Daily Summary

Daily Weather History Graph

Daily Weather History Graph

Search for Another Location

Airport or City:

Trip Planner

Search our weather history database for the weather conditions in past years. The results will help you decide how hot, cold, wet, or windy it might be!

Date:

Astronomy

Apr. 16, 2014 Rise Set
Actual Time 6:20 AM CDT 7:17 PM CDT
Civil Twilight 5:56 AM CDT 7:42 PM CDT
Nautical Twilight 5:27 AM CDT 8:11 PM CDT
Astronomical Twilight 4:57 AM CDT 8:41 PM CDT
Moon 8:54 PM CDT (4/16) 7:12 AM CDT (4/16)
Length of Visible Light 13h 45m
Length of Day
12h 56m
Full, 98% of the Moon is Illuminated
Apr 16
Full
Apr 22
Last Quarter
Apr 29
New
May 6
First Quarter
May 14
Full

Hourly Weather History & Observations

Time (CDT) Temp. Windchill Dew Point Humidity Pressure Visibility Wind Dir Wind Speed Gust Speed Precip Events Conditions
12:56 AM 46.0 °F 41.9 °F 34.0 °F 63% 30.15 in 10.0 mi North 8.1 mph - N/A   Clear
1:56 AM 44.1 °F 40.8 °F 34.0 °F 68% 30.15 in 10.0 mi NNW 5.8 mph - N/A   Clear
2:56 AM 45.0 °F 40.6 °F 34.0 °F 65% 30.16 in 10.0 mi NNE 8.1 mph - N/A   Clear
3:56 AM 44.1 °F 38.6 °F 34.0 °F 68% 30.15 in 10.0 mi NNE 10.4 mph - N/A   Clear
4:56 AM 44.1 °F 37.7 °F 33.1 °F 65% 30.14 in 10.0 mi NE 12.7 mph - N/A   Clear
5:56 AM 43.0 °F 36.4 °F 30.9 °F 62% 30.16 in 10.0 mi NNE 12.7 mph - N/A   Clear
6:56 AM 43.0 °F 37.2 °F 32.0 °F 65% 30.20 in 10.0 mi NE 10.4 mph - N/A   Clear
7:56 AM 46.0 °F 39.6 °F 28.9 °F 51% 30.22 in 10.0 mi NE 15.0 mph - N/A   Clear
8:56 AM 48.0 °F - 32.0 °F 54% 30.23 in 10.0 mi ENE 12.7 mph - N/A   Clear
9:56 AM 51.1 °F - 34.0 °F 52% 30.24 in 10.0 mi East 12.7 mph 19.6 mph N/A   Partly Cloudy
10:56 AM 54.0 °F - 36.0 °F 51% 30.25 in 10.0 mi ENE 11.5 mph - N/A   Partly Cloudy
11:56 AM 55.0 °F - 36.0 °F 49% 30.23 in 10.0 mi ENE 9.2 mph - N/A   Partly Cloudy
12:56 PM 57.9 °F - 37.0 °F 46% 30.20 in 10.0 mi NE 10.4 mph - N/A   Clear
1:56 PM 61.0 °F - 39.9 °F 46% 30.18 in 10.0 mi East 6.9 mph - N/A   Clear
2:56 PM 62.1 °F - 43.0 °F 50% 30.16 in 10.0 mi SSE 8.1 mph - N/A   Clear
3:56 PM 62.1 °F - 43.0 °F 50% 30.14 in 10.0 mi South 8.1 mph - N/A   Clear
4:56 PM 62.1 °F - 44.1 °F 52% 30.13 in 10.0 mi SSE 8.1 mph - N/A   Clear
5:56 PM 61.0 °F - 45.0 °F 56% 30.14 in 10.0 mi South 9.2 mph - N/A   Scattered Clouds
6:56 PM 57.9 °F - 46.0 °F 65% 30.15 in 10.0 mi SSW 4.6 mph - N/A   Scattered Clouds
7:56 PM 52.0 °F - 48.0 °F 86% 30.16 in 10.0 mi Calm Calm - N/A   Scattered Clouds
8:56 PM 50.0 °F - 46.9 °F 89% 30.16 in 10.0 mi Calm Calm - N/A   Partly Cloudy
9:56 PM 50.0 °F - 48.0 °F 93% 30.17 in 10.0 mi Calm Calm - N/A   Mostly Cloudy
10:56 PM 48.0 °F - 48.0 °F 100% 30.18 in 10.0 mi NNW 3.5 mph - N/A   Clear
11:56 PM 48.9 °F - 46.9 °F 93% 30.18 in 10.0 mi Calm Calm - N/A   Clear